Regional Weather Roundup
Issued by NWS Goodland, KS

Home | Current Version | Previous Version | Graphics & Text | Print | Product List | Glossary On
Versions: 1 2 3 4 5 6 7 8 9 10 11 12 13 14 15 16 17 18 19 20 21 22 23 24 25 26 27 28 29 30 31 32 33 34 35 36 37 38 39 40 41 42 43 44 45 46 47 48 49 50
000
ASUS43 KGLD 130308
RWRGLD

GOODLAND FORECAST AREA HOURLY WEATHER ROUNDUP
NATIONAL WEATHER SERVICE GOODLAND KS
800 PM MST FRI FEB 12 2016

...OFFICIAL OBSERVATIONS...

CITY           SKY/WX    TMP DP  RH WIND       PRES   REMARKS
GOODLAND KS    CLOUDY    29  28  96 SE14      30.38R WCI  18
HILL CITY KS   CLOUDY    30  26  85 E14       30.49R WCI  19
IMPERIAL NEB   CLOUDY    31  28  89 SE10      30.39R
MCCOOK NEB     FOG       28  27  96 E16       30.44F VSB 1/4 WCI  16
AKRON CO       FOG       30  30 100 SE20G25   30.29R VSB 1/4 WCI  17
BURLINGTON CO  FOG       30  28  92 SE14      30.35R VSB 1/4 WCI  19
LIMON CO       CLOUDY    31  30  96 SE7       30.28S
$$

...UNOFFICIAL OBSERVATIONS...

CITY           SKY/WX    TMP DP  RH WIND       PRES   REMARKS
COLBY KS       CLOUDY    32  30  93 E13       30.42S
GOVE KS          N/A     32  32 100 MISG        N/A
LENORA KS        N/A     28  32 100 MISG        N/A
NORTON KS      CLOUDY    28  25  86 E15       30.47S FOG     WCI  17
SHARON SPRINGS   N/A     31  29  91 SE6         N/A
KIT CARSON CO    N/A     31  28  88 MISG        N/A
YUMA CO          N/A     30  29  95 SE13        N/A  WCI  20
$$



USA.gov is the U.S. government's official web portal to all federal, state and local government web resources and services.